Powrót do katalogu

COSMOS 2251 DEB

AktywnyLEO
NORAD 35287·DEBRIS·🇷🇺 Russia

Wystrzelony Jun 16, 1993 z Plesetsk Cosmodrome

Loading…

Następne Przeloty (najbliższe 24 godziny)

TLE

ŚwieżeSource: Space-Track

Epoka: Sep 14, 2026, 21:58 UTC

1 35287U 93036AJR 26257.91553954  .00000190  00000-0  73394-4 0  9999
2 35287  74.0295 128.5656 0017846 165.6813 214.5668 14.36557956908586

Śledź COSMOS 2251 DEB w czasie rzeczywistym z AllMySat

Download on the App Store